Content
SEND FEEDBACK

Daily
Averages
Monthly
Summary
Greece

ATHENS, GREECE


Home > Europe > Greece
Elevation: 69 feet     Latitude: 37 54N     Longitude: 023 44E

WEATHER
 
SELECT A DAY
Number of Records: 83,069;   Date Range: 4/14/01 - 11/22/14
 
SHARE

PRINT THIS DATA

[ ← Previous Day ]
WEATHER ALMANAC - JANUARY 11, 2014
[ Next Day → ]
[ °C ]   °F
Weather ElementAverageHighLow
Temperature50.8 °F59 °F (12:20 pm)44.6 °F (4:50 am)
Dewpoint45 °F50 °F (9:50 am)39.2 °F (5:50 am)
Humidity80.8 %93 % (9:50 pm)67 % (12:20 pm)
Barometer30.18 in30.21 in (8:50 am)30.09 in (12:50 am)
Wind Speed3.2 mph8.1 mph (1:50 pm)
Weather ElementAverage
Visibility6.2 mi
Wind DirectionE (94.6 °)

Weather ElementTotal
Precipitation---
Heating Degree Days13.2 (Base 65)
Growing Degree Days1.8 (Base 50)
Averaged from 46 records on January 11, 2014
WEATHER CONDITIONS BREAKOUT
WIND DIRECTION BREAKOUT
WEATHER BY HOUR - JANUARY 11, 2014
[ °C ]   °F
Local TimeTemperatureDewpointHumidityBarometerVisibilityWind DirectionWind SpeedGust SpeedPrecipitationEventsConditions
12:50 AM50.0 °F44.6 °F82 %30.09 inCalmClear
1:20 AM50.0 °F44.6 °F82 %30.09 inVariable3.5 mphClear
1:50 AM46.4 °F41.0 °F81 %30.09 inVariable1.2 mphClear
2:20 AM48.2 °F42.8 °F82 %30.12 inVariable2.3 mphClear
2:50 AM46.4 °F41.0 °F81 %30.12 inWSW (240°)2.3 mphClear
3:20 AM46.4 °F42.8 °F87 %30.12 inSW (220°)2.3 mphClear
3:50 AM46.4 °F42.8 °F87 %30.12 inVariable3.5 mphClear
4:20 AM46.4 °F41.0 °F81 %30.12 inVariable2.3 mphClear
4:50 AM44.6 °F41.0 °F87 %30.12 inWSW (240°)3.5 mphClear
5:20 AM44.6 °F41.0 °F87 %30.12 inVariable2.3 mphClear
5:50 AM44.6 °F39.2 °F81 %30.15 inVariable2.3 mphClear
6:20 AM44.6 °F41.0 °F87 %30.15 inVariable1.2 mphClear
6:50 AM44.6 °F41.0 °F87 %30.18 inVariable1.2 mphClear
7:20 AM44.6 °F41.0 °F87 %30.18 in6.2 miWest (260°)4.6 mphPartly Cloudy
7:50 AM44.6 °F41.0 °F87 %30.18 in6.2 miWest (260°)3.5 mphPartly Cloudy
8:20 AM46.4 °F42.8 °F87 %30.18 in6.2 miWSW (240°)2.3 mphPartly Cloudy
8:50 AM48.2 °F44.6 °F87 %30.21 in6.2 miSW (220°)2.3 mphPartly Cloudy
9:20 AM51.8 °F48.2 °F88 %30.21 in6.2 miVariable1.2 mphPartly Cloudy
9:50 AM53.6 °F50.0 °F88 %30.21 in6.2 miVariable1.2 mphPartly Cloudy
10:20 AM55.4 °F48.2 °F77 %30.21 in6.2 miVariable2.3 mphPartly Cloudy
10:50 AM55.4 °F48.2 °F77 %30.21 in6.2 miENE (60°)6.9 mphPartly Cloudy
11:20 AM55.4 °F46.4 °F72 %30.21 in6.2 miNE (50°)5.8 mphPartly Cloudy
11:50 AM57.2 °F48.2 °F72 %30.21 in6.2 miNE (50°)5.8 mphPartly Cloudy
12:20 PM59.0 °F48.2 °F67 %30.18 in6.2 miENE (60°)5.8 mphPartly Cloudy
12:50 PM59.0 °F48.2 °F67 %30.18 in6.2 miVariable3.5 mphPartly Cloudy
1:20 PM59.0 °F48.2 °F67 %30.18 in6.2 miVariable3.5 mphScattered Clouds
1:50 PM59.0 °F48.2 °F67 %30.18 in6.2 miNE (50°)8.1 mphScattered Clouds
2:20 PM57.2 °F46.4 °F67 %30.18 in6.2 miNE (40°)8.1 mphScattered Clouds
2:50 PM59.0 °F48.2 °F67 %30.18 in6.2 miEast (80°)5.8 mphScattered Clouds
3:20 PM59.0 °F48.2 °F67 %30.18 in6.2 miENE (60°)4.6 mphScattered Clouds
3:50 PM57.2 °F48.2 °F72 %30.18 in6.2 miEast (80°)4.6 mphScattered Clouds
4:20 PM57.2 °F48.2 °F72 %30.18 in6.2 miENE (70°)4.6 mphScattered Clouds
4:50 PM57.2 °F46.4 °F67 %30.18 in6.2 miNE (40°)3.5 mphMostly Cloudy
5:20 PM55.4 °F46.4 °F72 %30.18 in6.2 miNorth (10°)3.5 mphMostly Cloudy
5:50 PM53.6 °F46.4 °F77 %30.18 in6.2 miNE (50°)3.5 mphMostly Cloudy
6:50 PM51.8 °F46.4 °F82 %30.21 in6.2 miCalmScattered Clouds
7:20 PM50.0 °F46.4 °F87 %30.21 in6.2 miVariable1.2 mphScattered Clouds
7:50 PM50.0 °F46.4 °F87 %30.21 in6.2 miVariable1.2 mphMostly Cloudy
8:20 PM48.2 °F44.6 °F87 %30.21 in6.2 miWest (270°)2.3 mphMostly Cloudy
8:50 PM48.2 °F44.6 °F87 %30.21 in6.2 miVariable1.2 mphMostly Cloudy
9:20 PM48.2 °F44.6 °F87 %30.21 in6.2 miWNW (290°)3.5 mphScattered Clouds
9:50 PM46.4 °F44.6 °F93 %30.21 in6.2 miWest (280°)1.2 mphMostly Cloudy
10:20 PM46.4 °F44.6 °F93 %30.21 in6.2 miWNW (290°)3.5 mphMostly Cloudy
10:50 PM46.4 °F44.6 °F93 %30.21 in6.2 miWest (280°)4.6 mphMostly Cloudy
11:20 PM48.2 °F44.6 °F87 %30.21 in6.2 miWest (280°)1.2 mphMostly Cloudy
11:50 PM46.4 °F44.6 °F93 %30.21 in6.2 miWest (280°)2.3 mphMostly Cloudy
Hourly data recorded from LGAV, located miles away from Athens, Greece







STORIES FROM OUR PARTNERS